Time,TemperatureF,DewpointF,PressureIn,WindDirection,WindDirectionDegrees,WindSpeedMPH,WindSpeedGustMPH,Humidity,HourlyPrecipIn,Conditions,Clouds,dailyrainin,SolarRadiationWatts/m^2,SoftwareType,DateUTC
2017-05-26 00:06:00,53.2,52.0,29.53,NE,34,0.0,6.0,97,0.00,,,0.00,0,weatherlink.com 1.10,2017-05-26 04:06:00,
2017-05-26 00:21:00,53.1,52.0,29.53,WNW,282,2.0,7.0,97,0.00,,,0.00,0,weatherlink.com 1.10,2017-05-26 04:21:00,
2017-05-26 00:36:00,53.0,52.0,29.56,WSW,245,0.0,4.0,97,0.00,,,0.00,0,weatherlink.com 1.10,2017-05-26 04:36:00,
2017-05-26 00:51:00,52.9,52.0,29.52,WNW,282,1.0,9.0,97,0.00,,,0.00,0,weatherlink.com 1.10,2017-05-26 04:51:00,
2017-05-26 01:06:00,52.8,52.0,29.51,NW,316,3.0,7.0,97,0.00,,,0.00,0,weatherlink.com 1.10,2017-05-26 05:06:00,
2017-05-26 01:21:00,52.8,52.0,29.48,NW,316,1.0,6.0,97,0.00,,,0.00,0,weatherlink.com 1.10,2017-05-26 05:21:00,
2017-05-26 01:36:00,52.7,52.0,29.48,West,281,0.0,7.0,97,0.00,,,0.00,0,weatherlink.com 1.10,2017-05-26 05:36:00,
2017-05-26 01:51:00,52.6,52.0,29.47,WSW,254,1.0,8.0,97,0.00,,,0.00,0,weatherlink.com 1.10,2017-05-26 05:51:00,
2017-05-26 02:06:00,52.4,52.0,29.47,ESE,111,0.0,8.0,97,0.00,,,0.00,0,weatherlink.com 1.10,2017-05-26 06:06:00,
2017-05-26 02:21:00,52.3,52.0,29.47,NE,54,3.0,8.0,97,0.00,,,0.00,0,weatherlink.com 1.10,2017-05-26 06:21:00,
2017-05-26 02:36:00,52.3,52.0,29.45,NE,42,3.0,8.0,97,0.00,,,0.00,0,weatherlink.com 1.10,2017-05-26 06:36:00,
2017-05-26 02:51:00,52.2,51.0,29.45,NW,315,3.0,7.0,97,0.00,,,0.00,0,weatherlink.com 1.10,2017-05-26 06:51:00,
2017-05-26 03:06:00,52.2,51.0,29.45,WSW,244,2.0,7.0,97,0.00,,,0.00,0,weatherlink.com 1.10,2017-05-26 07:06:00,
2017-05-26 03:21:00,52.2,51.0,29.47,SSE,168,0.0,5.0,97,0.00,,,0.00,0,weatherlink.com 1.10,2017-05-26 07:21:00,
2017-05-26 03:36:00,52.1,51.0,29.46,West,279,2.0,2.0,97,0.00,,,0.00,0,weatherlink.com 1.10,2017-05-26 07:36:00,
2017-05-26 03:51:00,52.0,51.0,29.45,North,350,0.0,2.0,97,0.00,,,0.00,0,weatherlink.com 1.10,2017-05-26 07:51:00,
2017-05-26 04:06:00,51.9,51.0,29.44,NNE,15,0.0,4.0,97,0.00,,,0.00,0,weatherlink.com 1.10,2017-05-26 08:06:00,
2017-05-26 04:21:00,51.9,51.0,29.43,NNE,13,0.0,5.0,97,0.00,,,0.00,0,weatherlink.com 1.10,2017-05-26 08:21:00,
2017-05-26 04:36:00,51.8,51.0,29.44,NNW,342,0.0,5.0,97,0.00,,,0.00,0,weatherlink.com 1.10,2017-05-26 08:36:00,
2017-05-26 04:51:00,51.8,51.0,29.45,WSW,249,0.0,6.0,97,0.00,,,0.00,0,weatherlink.com 1.10,2017-05-26 08:51:00,
2017-05-26 05:06:00,51.8,51.0,29.45,NNW,338,0.0,5.0,97,0.00,,,0.00,0,weatherlink.com 1.10,2017-05-26 09:06:00,
2017-05-26 05:21:00,51.6,51.0,29.44,NNE,27,2.0,8.0,97,0.00,,,0.00,0,weatherlink.com 1.10,2017-05-26 09:21:00,
2017-05-26 05:36:00,51.4,51.0,29.44,North,355,0.0,4.0,97,0.00,,,0.00,0,weatherlink.com 1.10,2017-05-26 09:36:00,
2017-05-26 05:52:00,51.3,51.0,29.44,North,9,0.0,7.0,97,0.00,,,0.00,7,weatherlink.com 1.10,2017-05-26 09:52:00,
2017-05-26 06:07:00,51.3,51.0,29.44,North,360,0.0,3.0,97,0.00,,,0.00,26,weatherlink.com 1.10,2017-05-26 10:07:00,
2017-05-26 06:22:00,51.4,51.0,29.44,NNW,334,0.0,2.0,97,0.00,,,0.00,25,weatherlink.com 1.10,2017-05-26 10:22:00,
2017-05-26 06:37:00,51.5,51.0,29.44,NW,307,0.0,2.0,97,0.00,,,0.00,39,weatherlink.com 1.10,2017-05-26 10:37:00,
2017-05-26 06:52:00,51.7,51.0,29.45,SW,223,0.0,4.0,97,0.00,,,0.00,30,weatherlink.com 1.10,2017-05-26 10:52:00,
2017-05-26 07:07:00,51.5,51.0,29.44,West,281,0.0,3.0,97,0.00,,,0.00,28,weatherlink.com 1.10,2017-05-26 11:07:00,
2017-05-26 07:22:00,51.5,51.0,29.44,WNW,282,3.0,3.0,97,0.00,,,0.00,30,weatherlink.com 1.10,2017-05-26 11:22:00,
2017-05-26 07:37:00,51.4,51.0,29.44,West,273,2.0,3.0,97,0.00,,,0.00,25,weatherlink.com 1.10,2017-05-26 11:37:00,
2017-05-26 07:52:00,51.1,50.0,29.44,WNW,285,2.0,6.0,97,0.00,,,0.00,26,weatherlink.com 1.10,2017-05-26 11:52:00,
2017-05-26 08:07:00,51.1,50.0,29.45,WNW,287,4.0,6.0,97,0.00,,,0.00,53,weatherlink.com 1.10,2017-05-26 12:07:00,
2017-05-26 08:22:00,51.2,50.0,29.45,WSW,244,1.0,8.0,97,0.00,,,0.00,74,weatherlink.com 1.10,2017-05-26 12:22:00,
2017-05-26 08:37:00,51.1,50.0,29.46,West,272,0.0,9.0,97,0.00,,,0.00,54,weatherlink.com 1.10,2017-05-26 12:37:00,
2017-05-26 08:52:00,51.0,50.0,29.46,West,261,2.0,11.0,97,0.00,,,0.00,60,weatherlink.com 1.10,2017-05-26 12:52:00,
2017-05-26 09:07:00,50.9,50.0,29.46,West,268,6.0,11.0,97,0.00,,,0.00,54,weatherlink.com 1.10,2017-05-26 13:07:00,
2017-05-26 09:22:00,51.0,50.0,29.46,WSW,253,4.0,6.0,97,0.00,,,0.00,83,weatherlink.com 1.10,2017-05-26 13:22:00,
2017-05-26 09:37:00,51.0,50.0,29.47,WSW,240,2.0,9.0,97,0.00,,,0.00,113,weatherlink.com 1.10,2017-05-26 13:37:00,
2017-05-26 09:52:00,51.1,50.0,29.47,SSW,196,2.0,10.0,97,0.00,,,0.00,193,weatherlink.com 1.10,2017-05-26 13:52:00,
2017-05-26 10:07:00,51.5,51.0,29.48,SW,227,4.0,10.0,97,0.00,,,0.00,223,weatherlink.com 1.10,2017-05-26 14:07:00,
2017-05-26 10:22:00,51.8,51.0,29.48,WSW,252,5.0,9.0,97,0.00,,,0.00,274,weatherlink.com 1.10,2017-05-26 14:22:00,
2017-05-26 10:37:00,52.2,51.0,29.49,West,275,0.0,12.0,97,0.00,,,0.00,304,weatherlink.com 1.10,2017-05-26 14:37:00,
2017-05-26 10:52:00,53.0,52.0,29.49,SSW,198,5.0,9.0,97,0.00,,,0.00,367,weatherlink.com 1.10,2017-05-26 14:52:00,
2017-05-26 11:07:00,52.8,52.0,29.50,West,271,4.0,14.0,96,0.01,,,0.01,359,weatherlink.com 1.10,2017-05-26 15:07:00,
2017-05-26 11:22:00,53.0,52.0,29.50,WSW,248,4.0,14.0,96,0.01,,,0.01,330,weatherlink.com 1.10,2017-05-26 15:22:00,
2017-05-26 11:37:00,53.4,52.0,29.51,SW,229,4.0,8.0,95,0.01,,,0.01,338,weatherlink.com 1.10,2017-05-26 15:37:00,
2017-05-26 11:52:00,53.9,53.0,29.51,WSW,250,0.0,9.0,95,0.01,,,0.01,214,weatherlink.com 1.10,2017-05-26 15:52:00,
2017-05-26 12:07:00,54.2,53.0,29.52,WSW,238,0.0,9.0,94,0.00,,,0.01,163,weatherlink.com 1.10,2017-05-26 16:07:00,
2017-05-26 12:22:00,54.4,53.0,29.52,WSW,256,2.0,7.0,94,0.00,,,0.01,209,weatherlink.com 1.10,2017-05-26 16:22:00,
2017-05-26 12:37:00,54.8,53.0,29.52,WSW,248,4.0,6.0,94,0.00,,,0.01,352,weatherlink.com 1.10,2017-05-26 16:37:00,
2017-05-26 12:52:00,55.5,54.0,29.53,SW,234,5.0,8.0,94,0.00,,,0.01,415,weatherlink.com 1.10,2017-05-26 16:52:00,
2017-05-26 13:07:00,56.4,55.0,29.53,West,268,3.0,12.0,93,0.00,,,0.01,422,weatherlink.com 1.10,2017-05-26 17:07:00,
2017-05-26 13:22:00,56.9,54.0,29.54,WNW,285,7.0,12.0,91,0.00,,,0.01,156,weatherlink.com 1.10,2017-05-26 17:22:00,
2017-05-26 13:37:00,56.8,54.0,29.55,WNW,294,1.0,9.0,90,0.00,,,0.01,127,weatherlink.com 1.10,2017-05-26 17:37:00,
2017-05-26 13:53:00,56.8,54.0,29.55,West,273,0.0,6.0,90,0.00,,,0.01,118,weatherlink.com 1.10,2017-05-26 17:53:00,
2017-05-26 14:07:00,56.4,54.0,29.55,WNW,297,6.0,10.0,91,0.00,,,0.01,232,weatherlink.com 1.10,2017-05-26 18:07:00,
2017-05-26 14:22:00,56.7,55.0,29.55,SW,236,5.0,8.0,92,0.00,,,0.01,223,weatherlink.com 1.10,2017-05-26 18:22:00,
2017-05-26 14:37:00,57.0,55.0,29.56,West,275,2.0,6.0,93,0.00,,,0.01,264,weatherlink.com 1.10,2017-05-26 18:37:00,
2017-05-26 14:52:00,57.5,56.0,29.55,WSW,237,0.0,4.0,93,0.00,,,0.01,200,weatherlink.com 1.10,2017-05-26 18:52:00,
2017-05-26 15:07:00,57.8,56.0,29.56,SW,234,2.0,5.0,93,0.00,,,0.01,211,weatherlink.com 1.10,2017-05-26 19:07:00,
2017-05-26 15:22:00,58.1,56.0,29.57,WSW,253,0.0,5.0,93,0.00,,,0.01,169,weatherlink.com 1.10,2017-05-26 19:22:00,
2017-05-26 15:37:00,58.5,57.0,29.57,WSW,237,0.0,8.0,93,0.00,,,0.01,121,weatherlink.com 1.10,2017-05-26 19:37:00,
2017-05-26 15:53:00,58.8,57.0,29.57,WSW,237,0.0,2.0,93,0.00,,,0.01,162,weatherlink.com 1.10,2017-05-26 19:53:00,
2017-05-26 16:07:00,58.8,57.0,29.57,WSW,240,0.0,4.0,93,0.00,,,0.01,130,weatherlink.com 1.10,2017-05-26 20:07:00,
2017-05-26 16:22:00,58.8,57.0,29.57,WSW,257,1.0,4.0,93,0.00,,,0.01,169,weatherlink.com 1.10,2017-05-26 20:22:00,
2017-05-26 16:37:00,58.7,57.0,29.57,West,262,0.0,6.0,93,0.00,,,0.01,120,weatherlink.com 1.10,2017-05-26 20:37:00,
2017-05-26 16:53:00,58.9,57.0,29.57,West,263,0.0,1.0,94,0.00,,,0.01,137,weatherlink.com 1.10,2017-05-26 20:53:00,
2017-05-26 17:08:00,59.3,58.0,29.58,West,263,1.0,3.0,94,0.00,,,0.01,137,weatherlink.com 1.10,2017-05-26 21:08:00,
2017-05-26 17:23:00,59.3,58.0,29.58,West,259,0.0,3.0,94,0.00,,,0.01,95,weatherlink.com 1.10,2017-05-26 21:23:00,
2017-05-26 17:38:00,59.5,58.0,29.58,WSW,256,0.0,1.0,94,0.00,,,0.01,132,weatherlink.com 1.10,2017-05-26 21:38:00,
2017-05-26 17:53:00,60.0,58.0,29.59,WSW,256,0.0,0.0,94,0.00,,,0.01,100,weatherlink.com 1.10,2017-05-26 21:53:00,
2017-05-26 18:08:00,60.1,58.0,29.59,WSW,256,0.0,0.0,94,0.00,,,0.01,54,weatherlink.com 1.10,2017-05-26 22:08:00,
2017-05-26 18:23:00,60.3,59.0,29.60,WSW,256,0.0,0.0,94,0.00,,,0.01,54,weatherlink.com 1.10,2017-05-26 22:23:00,
2017-05-26 18:38:00,60.2,59.0,29.60,WSW,256,0.0,0.0,94,0.00,,,0.01,35,weatherlink.com 1.10,2017-05-26 22:38:00,
2017-05-26 18:53:00,60.2,59.0,29.61,WSW,256,0.0,0.0,94,0.00,,,0.01,30,weatherlink.com 1.10,2017-05-26 22:53:00,
2017-05-26 19:08:00,60.2,59.0,29.61,WSW,256,0.0,0.0,94,0.00,,,0.01,23,weatherlink.com 1.10,2017-05-26 23:08:00,
2017-05-26 19:23:00,60.2,59.0,29.62,WSW,256,0.0,0.0,94,0.00,,,0.01,11,weatherlink.com 1.10,2017-05-26 23:23:00,
2017-05-26 19:38:00,60.3,59.0,29.63,WSW,256,0.0,0.0,95,0.00,,,0.01,11,weatherlink.com 1.10,2017-05-26 23:38:00,
2017-05-26 19:53:00,60.2,59.0,29.63,WSW,256,0.0,0.0,95,0.00,,,0.01,0,weatherlink.com 1.10,2017-05-26 23:53:00,
2017-05-26 20:08:00,60.0,58.0,29.64,WSW,256,0.0,0.0,94,0.00,,,0.01,0,weatherlink.com 1.10,2017-05-27 00:08:00,
2017-05-26 20:23:00,59.9,59.0,29.64,WSW,256,0.0,0.0,95,0.00,,,0.01,0,weatherlink.com 1.10,2017-05-27 00:23:00,
2017-05-26 20:38:00,59.8,58.0,29.64,WSW,256,0.0,0.0,95,0.00,,,0.01,0,weatherlink.com 1.10,2017-05-27 00:38:00,
2017-05-26 20:53:00,59.7,58.0,29.65,WSW,256,0.0,0.0,95,0.00,,,0.01,0,weatherlink.com 1.10,2017-05-27 00:53:00,
2017-05-26 21:08:00,59.6,58.0,29.66,WSW,256,0.0,0.0,95,0.00,,,0.01,0,weatherlink.com 1.10,2017-05-27 01:08:00,